Вернуться в каталог

SL-8 DEB

АктивенLEO
NORAD 21179·DEBRIS·🇷🇺 Russia

Запущен Feb 12, 1991 с Plesetsk Cosmodrome

Loading…

Ближайшие Пролёты (ближайшие 24 часа)

TLE

СвежийSource: Space-Track

Эпоха: Sep 14, 2026, 09:50 UTC

1 21179U 91009AS  26257.41007317 -.00000009  00000-0  50652-4 0  9996
2 21179  73.9908 144.5987 0121862   6.3109 167.8087 12.16221879580071

Отслеживайте SL-8 DEB в реальном времени с AllMySat

Download on the App Store